Time,TemperatureF,DewpointF,PressureIn,WindDirection,WindDirectionDegrees,WindSpeedMPH,WindSpeedGustMPH,Humidity,HourlyPrecipIn,Conditions,Clouds,dailyrainin,SoftwareType,DateUTC
2013-05-13 00:00:00,39.8,33.8,30.13,NW,326,0.0,0.0,79,0.00,,OVC090,0.00,VWS V14.01,2013-05-13 04:00:00,
2013-05-13 00:01:00,39.8,33.8,30.13,NW,326,0.0,0.0,79,0.00,,BKN080,0.00,VWS V14.01,2013-05-13 04:01:00,
2013-05-13 00:06:00,39.5,33.5,30.13,NW,326,0.0,0.0,79,0.00,,BKN080,0.00,VWS V14.01,2013-05-13 04:06:00,
2013-05-13 00:11:00,39.3,33.3,30.13,NW,326,0.0,0.0,79,0.00,,BKN080,0.00,VWS V14.01,2013-05-13 04:11:00,
2013-05-13 00:15:00,39.2,33.2,30.13,NW,326,0.0,0.0,79,0.00,,OVC090,0.00,VWS V14.01,2013-05-13 04:15:00,
2013-05-13 00:16:00,39.1,33.2,30.13,NW,326,0.0,0.0,79,0.00,,BKN080,0.00,VWS V14.01,2013-05-13 04:16:00,
2013-05-13 00:21:00,39.1,32.8,30.13,NW,326,0.0,0.0,78,0.00,,BKN080,0.00,VWS V14.01,2013-05-13 04:21:00,
2013-05-13 00:26:00,39.2,32.0,30.13,NW,326,0.0,0.0,75,0.00,,BKN080,0.00,VWS V14.01,2013-05-13 04:26:00,
2013-05-13 00:30:00,39.2,32.0,30.13,NW,326,0.0,0.0,75,0.00,,OVC090,0.00,VWS V14.01,2013-05-13 04:30:00,
2013-05-13 00:31:00,39.3,31.7,30.13,NW,326,0.0,0.0,74,0.00,,BKN080,0.00,VWS V14.01,2013-05-13 04:31:00,
2013-05-13 00:36:00,39.3,31.7,30.13,NW,326,0.0,0.0,74,0.00,,BKN080,0.00,VWS V14.01,2013-05-13 04:36:00,
2013-05-13 00:41:00,39.3,31.7,30.13,NW,326,0.0,0.0,74,0.00,,BKN080,0.00,VWS V14.01,2013-05-13 04:41:00,
2013-05-13 00:45:00,39.2,32.0,30.14,NW,326,0.0,0.0,75,0.00,,OVC090,0.00,VWS V14.01,2013-05-13 04:45:00,
2013-05-13 00:46:00,39.1,31.9,30.14,NW,326,0.0,0.0,75,0.00,,BKN080,0.00,VWS V14.01,2013-05-13 04:46:00,
2013-05-13 00:51:00,38.9,31.7,30.14,NW,326,0.0,0.0,75,0.00,,BKN080,0.00,VWS V14.01,2013-05-13 04:51:00,
2013-05-13 00:56:00,38.8,31.6,30.14,NW,326,0.0,0.0,75,0.00,,BKN080,0.00,VWS V14.01,2013-05-13 04:56:00,
2013-05-13 01:00:00,38.6,31.4,30.14,NW,326,0.0,0.0,75,0.00,,OVC090,0.00,VWS V14.01,2013-05-13 05:00:00,
2013-05-13 01:01:00,38.6,31.7,30.14,NW,326,0.0,0.0,76,0.00,,CLR,0.00,VWS V14.01,2013-05-13 05:01:00,
2013-05-13 01:06:00,38.3,31.4,30.14,NW,326,0.0,0.0,76,0.00,,CLR,0.00,VWS V14.01,2013-05-13 05:06:00,
2013-05-13 01:11:00,38.0,31.4,30.14,NW,326,0.0,0.0,77,0.00,,CLR,0.00,VWS V14.01,2013-05-13 05:11:00,
2013-05-13 01:15:00,37.9,31.7,30.14,NW,326,0.0,0.0,78,0.00,,OVC090,0.00,VWS V14.01,2013-05-13 05:15:00,
2013-05-13 01:16:00,37.9,31.7,30.14,NW,326,0.0,0.0,78,0.00,,CLR,0.00,VWS V14.01,2013-05-13 05:16:00,
2013-05-13 01:21:00,37.6,31.4,30.14,NW,326,0.0,0.0,78,0.00,,CLR,0.00,VWS V14.01,2013-05-13 05:21:00,
2013-05-13 01:26:00,37.5,31.3,30.14,NW,326,0.0,0.0,78,0.00,,CLR,0.00,VWS V14.01,2013-05-13 05:26:00,
2013-05-13 01:30:00,37.3,31.4,30.14,NW,326,0.0,0.0,79,0.00,,OVC090,0.00,VWS V14.01,2013-05-13 05:30:00,
2013-05-13 01:31:00,37.2,31.3,30.14,NW,326,0.0,0.0,79,0.00,,CLR,0.00,VWS V14.01,2013-05-13 05:31:00,
2013-05-13 01:36:00,37.0,31.1,30.14,NW,326,0.0,0.0,79,0.00,,CLR,0.00,VWS V14.01,2013-05-13 05:36:00,
2013-05-13 01:41:00,36.8,31.2,30.14,NW,326,0.0,0.0,80,0.00,,CLR,0.00,VWS V14.01,2013-05-13 05:41:00,
2013-05-13 01:45:00,36.6,31.3,30.14,NW,326,0.0,0.0,81,0.00,,OVC090,0.00,VWS V14.01,2013-05-13 05:45:00,
2013-05-13 01:46:00,36.6,31.3,30.14,NW,326,0.0,0.0,81,0.00,,CLR,0.00,VWS V14.01,2013-05-13 05:46:00,
2013-05-13 01:51:00,36.6,31.6,30.14,NW,326,0.0,0.0,82,0.00,,CLR,0.00,VWS V14.01,2013-05-13 05:51:00,
2013-05-13 01:56:00,36.5,31.8,30.14,NW,326,0.0,0.0,83,0.00,,CLR,0.00,VWS V14.01,2013-05-13 05:56:00,
2013-05-13 02:00:00,36.6,31.9,30.14,NW,326,0.0,0.0,83,0.00,,OVC090,0.00,VWS V14.01,2013-05-13 06:00:00,
2013-05-13 02:01:00,36.6,32.2,30.14,NW,326,0.0,0.0,84,0.00,,BKN090,0.00,VWS V14.01,2013-05-13 06:01:00,
2013-05-13 02:06:00,36.6,32.2,30.14,NW,326,0.0,0.0,84,0.00,,BKN090,0.00,VWS V14.01,2013-05-13 06:06:00,
2013-05-13 02:12:00,36.8,32.4,30.14,NW,326,0.0,0.0,84,0.00,,BKN090,0.00,VWS V14.01,2013-05-13 06:12:00,
2013-05-13 02:15:00,36.8,32.4,30.14,NW,326,0.0,0.0,84,0.00,,OVC090,0.00,VWS V14.01,2013-05-13 06:15:00,
2013-05-13 02:16:00,36.8,32.7,30.14,NW,326,0.0,0.0,85,0.00,,BKN090,0.00,VWS V14.01,2013-05-13 06:16:00,
2013-05-13 02:21:00,36.9,32.8,30.14,NW,326,0.0,0.0,85,0.00,,BKN090,0.00,VWS V14.01,2013-05-13 06:21:00,
2013-05-13 02:26:00,37.0,33.2,30.14,NW,326,0.0,0.0,86,0.00,,BKN090,0.00,VWS V14.01,2013-05-13 06:26:00,
2013-05-13 02:30:00,37.0,33.2,30.13,NW,326,0.0,0.0,86,0.00,,OVC090,0.00,VWS V14.01,2013-05-13 06:30:00,
2013-05-13 02:32:00,37.2,33.4,30.13,NW,326,0.0,0.0,86,0.00,,BKN090,0.00,VWS V14.01,2013-05-13 06:32:00,
2013-05-13 02:37:00,37.3,33.5,30.13,NW,326,0.0,0.0,86,0.00,,BKN090,0.00,VWS V14.01,2013-05-13 06:37:00,
2013-05-13 02:42:00,37.5,34.0,30.13,NW,326,0.0,0.0,87,0.00,,BKN090,0.00,VWS V14.01,2013-05-13 06:42:00,
2013-05-13 02:45:00,37.6,34.1,30.13,NW,326,0.0,0.0,87,0.00,,OVC090,0.00,VWS V14.01,2013-05-13 06:45:00,
2013-05-13 02:47:00,37.6,34.1,30.13,NW,326,0.0,0.0,87,0.00,,BKN090,0.00,VWS V14.01,2013-05-13 06:47:00,
2013-05-13 02:52:00,37.8,34.3,30.13,NW,326,0.0,0.0,87,0.00,,BKN090,0.00,VWS V14.01,2013-05-13 06:52:00,
2013-05-13 02:56:00,38.0,34.5,30.13,NW,326,0.0,0.0,87,0.00,,BKN090,0.00,VWS V14.01,2013-05-13 06:56:00,
2013-05-13 03:00:00,38.0,34.5,30.13,NW,326,0.0,0.0,87,0.00,,OVC090,0.00,VWS V14.01,2013-05-13 07:00:00,
2013-05-13 03:02:00,38.2,34.7,30.13,NW,326,0.0,0.0,87,0.00,,OVC085,0.00,VWS V14.01,2013-05-13 07:02:00,
2013-05-13 03:07:00,38.3,34.8,30.13,NW,326,0.0,0.0,87,0.00,,OVC085,0.00,VWS V14.01,2013-05-13 07:07:00,
2013-05-13 03:12:00,38.3,34.8,30.13,NW,326,0.0,0.0,87,0.00,,OVC085,0.00,VWS V14.01,2013-05-13 07:12:00,
2013-05-13 03:15:00,38.5,35.0,30.12,NW,326,0.0,0.0,87,0.00,,OVC090,0.00,VWS V14.01,2013-05-13 07:15:00,
2013-05-13 03:17:00,38.5,35.3,30.12,NW,326,0.0,0.0,88,0.00,,OVC085,0.00,VWS V14.01,2013-05-13 07:17:00,
2013-05-13 03:22:00,38.6,35.4,30.12,NW,326,0.0,0.0,88,0.00,,OVC085,0.00,VWS V14.01,2013-05-13 07:22:00,
2013-05-13 03:27:00,38.6,35.1,30.12,NW,326,0.0,0.0,87,0.00,,OVC085,0.00,VWS V14.01,2013-05-13 07:27:00,
2013-05-13 03:30:00,38.8,35.6,30.12,NW,326,0.0,0.0,88,0.00,,OVC090,0.00,VWS V14.01,2013-05-13 07:30:00,
2013-05-13 03:32:00,38.8,35.6,30.12,NW,326,0.0,0.0,88,0.00,,OVC085,0.00,VWS V14.01,2013-05-13 07:32:00,
2013-05-13 03:37:00,38.9,35.7,30.12,NW,326,0.0,0.0,88,0.00,,OVC085,0.00,VWS V14.01,2013-05-13 07:37:00,
2013-05-13 03:42:00,38.9,35.7,30.12,NW,326,0.0,0.0,88,0.00,,OVC085,0.00,VWS V14.01,2013-05-13 07:42:00,
2013-05-13 03:45:00,38.9,35.7,30.13,NW,326,0.0,0.0,88,0.00,,OVC090,0.00,VWS V14.01,2013-05-13 07:45:00,
2013-05-13 03:47:00,38.9,35.7,30.13,NW,326,0.0,0.0,88,0.00,,OVC085,0.00,VWS V14.01,2013-05-13 07:47:00,
2013-05-13 03:52:00,38.9,35.7,30.13,NW,326,0.0,0.0,88,0.00,,OVC085,0.00,VWS V14.01,2013-05-13 07:52:00,
2013-05-13 03:57:00,38.9,35.7,30.13,NW,326,0.0,0.0,88,0.00,,OVC085,0.00,VWS V14.01,2013-05-13 07:57:00,
2013-05-13 04:00:00,38.9,35.7,30.12,NW,326,0.0,0.0,88,0.00,,OVC090,0.00,VWS V14.01,2013-05-13 08:00:00,
2013-05-13 04:02:00,38.9,35.7,30.12,NW,326,0.0,0.0,88,0.00,,OVC090,0.00,VWS V14.01,2013-05-13 08:02:00,
2013-05-13 04:07:00,38.9,35.7,30.12,NW,326,0.0,0.0,88,0.00,,OVC090,0.00,VWS V14.01,2013-05-13 08:07:00,
2013-05-13 04:12:00,38.8,35.6,30.12,NW,326,0.0,0.0,88,0.00,,OVC090,0.00,VWS V14.01,2013-05-13 08:12:00,
2013-05-13 04:15:00,38.8,35.6,30.12,NW,326,0.0,0.0,88,0.00,,OVC090,0.00,VWS V14.01,2013-05-13 08:15:00,
2013-05-13 04:17:00,38.8,35.6,30.12,NW,326,0.0,0.0,88,0.00,,OVC090,0.00,VWS V14.01,2013-05-13 08:17:00,
2013-05-13 04:22:00,38.8,35.6,30.12,NW,326,0.0,0.0,88,0.00,,OVC090,0.00,VWS V14.01,2013-05-13 08:22:00,
2013-05-13 04:27:00,38.8,35.6,30.12,NW,326,0.0,0.0,88,0.00,,OVC090,0.00,VWS V14.01,2013-05-13 08:27:00,
2013-05-13 04:30:00,38.8,35.6,30.12,NW,326,0.0,0.0,88,0.00,,OVC090,0.00,VWS V14.01,2013-05-13 08:30:00,
2013-05-13 04:32:00,38.8,35.6,30.12,NW,326,0.0,0.0,88,0.00,,OVC090,0.00,VWS V14.01,2013-05-13 08:32:00,
2013-05-13 04:37:00,38.8,35.6,30.12,NW,326,0.0,0.0,88,0.00,,OVC090,0.00,VWS V14.01,2013-05-13 08:37:00,
2013-05-13 04:42:00,38.8,35.6,30.12,NW,326,0.0,0.0,88,0.00,,OVC090,0.00,VWS V14.01,2013-05-13 08:42:00,
2013-05-13 04:45:00,38.8,35.6,30.12,NW,326,0.0,0.0,88,0.00,,OVC090,0.00,VWS V14.01,2013-05-13 08:45:00,
2013-05-13 04:47:00,38.8,35.6,30.12,NW,326,0.0,0.0,88,0.00,,OVC090,0.00,VWS V14.01,2013-05-13 08:47:00,
2013-05-13 04:52:00,38.8,35.6,30.12,NW,326,0.0,0.0,88,0.00,,OVC090,0.00,VWS V14.01,2013-05-13 08:52:00,
2013-05-13 04:57:00,38.6,35.4,30.12,NW,326,0.0,0.0,88,0.00,,OVC090,0.00,VWS V14.01,2013-05-13 08:57:00,
2013-05-13 05:00:00,38.6,35.4,30.12,NW,326,0.0,0.0,88,0.00,,OVC090,0.00,VWS V14.01,2013-05-13 09:00:00,
2013-05-13 05:02:00,38.6,35.4,30.12,NW,326,0.0,0.0,88,0.00,,OVC090,0.00,VWS V14.01,2013-05-13 09:02:00,
2013-05-13 05:07:00,38.6,35.4,30.12,NW,326,0.0,0.0,88,0.00,,OVC090,0.00,VWS V14.01,2013-05-13 09:07:00,
2013-05-13 05:12:00,38.5,35.3,30.12,NW,326,0.0,0.0,88,0.00,,OVC090,0.00,VWS V14.01,2013-05-13 09:12:00,
2013-05-13 05:15:00,38.5,35.3,30.12,NW,326,0.0,0.0,88,0.00,,OVC090,0.00,VWS V14.01,2013-05-13 09:15:00,
2013-05-13 05:17:00,38.5,35.3,30.12,NW,326,0.0,0.0,88,0.00,,OVC090,0.00,VWS V14.01,2013-05-13 09:17:00,
2013-05-13 05:22:00,38.3,35.1,30.12,NW,326,0.0,0.0,88,0.00,,OVC090,0.00,VWS V14.01,2013-05-13 09:22:00,
2013-05-13 05:27:00,38.3,35.3,30.12,NW,326,0.0,0.0,89,0.00,,OVC090,0.00,VWS V14.01,2013-05-13 09:27:00,
2013-05-13 05:30:00,38.3,35.3,30.12,NW,326,0.0,0.0,89,0.00,,OVC090,0.00,VWS V14.01,2013-05-13 09:30:00,
2013-05-13 05:32:00,38.3,35.3,30.12,NW,326,0.0,0.0,89,0.00,,OVC090,0.00,VWS V14.01,2013-05-13 09:32:00,
2013-05-13 05:37:00,38.2,35.2,30.12,NW,326,0.0,0.0,89,0.00,,OVC090,0.00,VWS V14.01,2013-05-13 09:37:00,
2013-05-13 05:42:00,38.0,35.0,30.12,NW,326,0.0,0.0,89,0.00,,OVC090,0.00,VWS V14.01,2013-05-13 09:42:00,
2013-05-13 05:45:00,38.0,35.0,30.12,NW,326,0.0,0.0,89,0.00,,OVC090,0.00,VWS V14.01,2013-05-13 09:45:00,
2013-05-13 05:47:00,37.9,35.0,30.12,NW,326,0.0,0.0,89,0.00,,OVC090,0.00,VWS V14.01,2013-05-13 09:47:00,
2013-05-13 05:52:00,37.8,34.9,30.12,NW,326,0.0,0.0,89,0.00,,OVC090,0.00,VWS V14.01,2013-05-13 09:52:00,
2013-05-13 05:57:00,37.8,34.9,30.12,NW,326,0.0,0.0,89,0.00,,OVC090,0.00,VWS V14.01,2013-05-13 09:57:00,
2013-05-13 06:00:00,37.6,34.7,30.12,NW,326,0.0,0.0,89,0.00,,OVC090,0.00,VWS V14.01,2013-05-13 10:00:00,
2013-05-13 06:02:00,37.6,34.7,30.12,NW,326,0.0,0.0,89,0.00,,OVC095,0.00,VWS V14.01,2013-05-13 10:02:00,
2013-05-13 06:07:00,37.5,34.6,30.12,NW,326,0.0,0.0,89,0.00,,OVC095,0.00,VWS V14.01,2013-05-13 10:07:00,
2013-05-13 06:12:00,37.5,34.6,30.12,NW,326,0.0,0.0,89,0.00,,OVC095,0.00,VWS V14.01,2013-05-13 10:12:00,
2013-05-13 06:15:00,37.3,34.4,30.12,NW,326,0.0,0.0,89,0.00,,OVC090,0.00,VWS V14.01,2013-05-13 10:15:00,
2013-05-13 06:17:00,37.3,34.4,30.12,NW,326,0.0,0.0,89,0.00,,OVC095,0.00,VWS V14.01,2013-05-13 10:17:00,
2013-05-13 06:22:00,37.3,34.4,30.12,NW,326,0.0,0.0,89,0.00,,OVC095,0.00,VWS V14.01,2013-05-13 10:22:00,
2013-05-13 06:27:00,37.2,34.3,30.12,NW,326,0.0,0.0,89,0.00,,OVC095,0.00,VWS V14.01,2013-05-13 10:27:00,
2013-05-13 06:30:00,37.0,34.1,30.13,NW,326,0.0,0.0,89,0.00,,OVC090,0.00,VWS V14.01,2013-05-13 10:30:00,
2013-05-13 06:32:00,37.0,34.1,30.13,NW,326,0.0,0.0,89,0.00,,OVC095,0.00,VWS V14.01,2013-05-13 10:32:00,
2013-05-13 06:37:00,36.9,34.0,30.13,NW,326,0.0,0.0,89,0.00,,OVC095,0.00,VWS V14.01,2013-05-13 10:37:00,
2013-05-13 06:42:00,36.9,34.0,30.13,NW,326,0.0,0.0,89,0.00,,OVC095,0.00,VWS V14.01,2013-05-13 10:42:00,
2013-05-13 06:45:00,36.9,34.0,30.14,NW,326,0.0,0.0,89,0.00,,OVC090,0.00,VWS V14.01,2013-05-13 10:45:00,
2013-05-13 06:47:00,36.9,34.0,30.14,NW,326,0.0,0.0,89,0.00,,OVC095,0.00,VWS V14.01,2013-05-13 10:47:00,
2013-05-13 06:52:00,36.9,34.2,30.14,NW,326,0.0,0.0,90,0.00,,OVC095,0.00,VWS V14.01,2013-05-13 10:52:00,
2013-05-13 06:57:00,36.9,34.2,30.14,NW,326,0.0,0.0,90,0.00,,OVC095,0.00,VWS V14.01,2013-05-13 10:57:00,
2013-05-13 07:00:00,36.9,34.2,30.15,NW,326,0.0,0.0,90,0.00,,OVC090,0.00,VWS V14.01,2013-05-13 11:00:00,
2013-05-13 07:02:00,36.9,34.2,30.15,NW,326,0.0,0.0,90,0.00,,BKN095,0.00,VWS V14.01,2013-05-13 11:02:00,
2013-05-13 07:07:00,37.0,34.3,30.15,NW,326,0.0,0.0,90,0.00,,BKN095,0.00,VWS V14.01,2013-05-13 11:07:00,
2013-05-13 07:12:00,37.5,35.1,30.15,NW,326,0.0,0.0,91,0.00,,BKN095,0.00,VWS V14.01,2013-05-13 11:12:00,
2013-05-13 07:15:00,37.8,35.4,30.15,NW,326,0.0,0.0,91,0.00,,OVC090,0.00,VWS V14.01,2013-05-13 11:15:00,
2013-05-13 07:17:00,38.2,35.8,30.15,NW,326,0.0,0.0,91,0.00,,BKN095,0.00,VWS V14.01,2013-05-13 11:17:00,
2013-05-13 07:22:00,39.1,37.0,30.15,NW,326,0.0,0.0,92,0.00,,BKN095,0.00,VWS V14.01,2013-05-13 11:22:00,
2013-05-13 07:27:00,40.2,37.8,30.15,NW,326,0.0,0.0,91,0.00,,BKN095,0.00,VWS V14.01,2013-05-13 11:27:00,
2013-05-13 07:30:00,40.8,38.1,30.16,NW,326,0.0,0.0,90,0.00,,OVC090,0.00,VWS V14.01,2013-05-13 11:30:00,
2013-05-13 07:32:00,41.1,38.1,30.16,NW,326,0.0,0.0,89,0.00,,BKN095,0.00,VWS V14.01,2013-05-13 11:32:00,
2013-05-13 07:37:00,41.9,38.3,30.16,NW,326,0.0,0.0,87,0.00,,BKN095,0.00,VWS V14.01,2013-05-13 11:37:00,
2013-05-13 07:42:00,42.9,38.4,30.16,NW,326,0.0,0.0,84,0.00,,BKN095,0.00,VWS V14.01,2013-05-13 11:42:00,
2013-05-13 07:45:00,43.5,38.1,30.16,NW,326,0.0,0.0,81,0.00,,OVC090,0.00,VWS V14.01,2013-05-13 11:45:00,
2013-05-13 07:47:00,43.8,37.1,30.16,NW,326,0.0,0.0,77,0.00,,BKN095,0.00,VWS V14.01,2013-05-13 11:47:00,
2013-05-13 07:52:00,44.5,36.0,30.16,NW,326,0.0,0.0,72,0.00,,BKN095,0.00,VWS V14.01,2013-05-13 11:52:00,
2013-05-13 07:57:00,44.8,34.5,30.16,NW,326,0.0,0.0,67,0.00,,BKN095,0.00,VWS V14.01,2013-05-13 11:57:00,
2013-05-13 08:00:00,44.9,33.5,30.16,NW,326,0.0,0.0,64,0.00,,OVC090,0.00,VWS V14.01,2013-05-13 12:00:00,
2013-05-13 08:02:00,44.9,31.9,30.16,NW,326,0.0,0.0,60,0.00,,CLR,0.00,VWS V14.01,2013-05-13 12:02:00,
2013-05-13 08:07:00,45.5,31.6,30.16,NW,326,0.0,0.0,58,0.00,,CLR,0.00,VWS V14.01,2013-05-13 12:07:00,
2013-05-13 08:12:00,45.7,29.1,30.16,NW,316,0.0,4.0,52,0.00,,CLR,0.00,VWS V14.01,2013-05-13 12:12:00,
2013-05-13 08:15:00,45.8,29.7,30.16,NW,318,4.0,4.0,53,0.00,,OVC090,0.00,VWS V14.01,2013-05-13 12:15:00,
2013-05-13 08:17:00,45.7,29.1,30.16,NW,316,0.0,4.0,52,0.00,,CLR,0.00,VWS V14.01,2013-05-13 12:17:00,
2013-05-13 08:22:00,46.0,29.4,30.16,NW,319,0.0,4.0,52,0.00,,CLR,0.00,VWS V14.01,2013-05-13 12:22:00,
2013-05-13 08:27:00,46.4,28.8,30.16,NNW,337,0.0,6.0,50,0.00,,CLR,0.00,VWS V14.01,2013-05-13 12:27:00,
2013-05-13 08:30:00,46.7,27.6,30.17,NNW,340,0.0,6.0,47,0.00,,OVC090,0.00,VWS V14.01,2013-05-13 12:30:00,
2013-05-13 08:32:00,47.0,28.9,30.17,NNW,344,0.0,3.0,49,0.00,,CLR,0.00,VWS V14.01,2013-05-13 12:32:00,
2013-05-13 08:37:00,47.6,27.9,30.17,NNW,344,0.0,2.0,46,0.00,,CLR,0.00,VWS V14.01,2013-05-13 12:37:00,
2013-05-13 08:42:00,47.7,26.3,30.17,NNW,340,0.0,4.0,43,0.00,,CLR,0.00,VWS V14.01,2013-05-13 12:42:00,
2013-05-13 08:45:00,47.6,26.2,30.17,NNW,332,0.0,6.0,43,0.00,,OVC090,0.00,VWS V14.01,2013-05-13 12:45:00,
2013-05-13 08:47:00,47.9,28.1,30.17,NNW,332,0.0,6.0,46,0.00,,CLR,0.00,VWS V14.01,2013-05-13 12:47:00,
2013-05-13 08:52:00,48.5,28.7,30.17,North,354,0.0,6.0,46,0.00,,CLR,0.00,VWS V14.01,2013-05-13 12:52:00,
2013-05-13 08:57:00,48.8,26.7,30.17,NNW,336,0.0,3.0,42,0.00,,CLR,0.00,VWS V14.01,2013-05-13 12:57:00,
2013-05-13 09:00:00,49.1,27.6,30.18,NNW,337,0.0,3.0,43,0.00,,OVC090,0.00,VWS V14.01,2013-05-13 13:00:00,
2013-05-13 09:02:00,49.1,27.0,30.18,NNW,344,4.0,6.0,42,0.00,,CLR,0.00,VWS V14.01,2013-05-13 13:02:00,
2013-05-13 09:07:00,49.2,27.1,30.18,North,6,0.0,6.0,42,0.00,,CLR,0.00,VWS V14.01,2013-05-13 13:07:00,
2013-05-13 09:12:00,49.6,29.7,30.18,NNW,347,0.0,5.0,46,0.00,,CLR,0.00,VWS V14.01,2013-05-13 13:12:00,
2013-05-13 09:15:00,49.9,28.3,30.18,NNW,347,0.0,5.0,43,0.00,,OVC090,0.00,VWS V14.01,2013-05-13 13:15:00,
2013-05-13 09:17:00,50.4,29.3,30.18,North,0,0.0,5.0,44,0.00,,CLR,0.00,VWS V14.01,2013-05-13 13:17:00,
2013-05-13 09:22:00,50.2,29.1,30.18,NNE,14,0.0,6.0,44,0.00,,CLR,0.00,VWS V14.01,2013-05-13 13:22:00,
2013-05-13 09:27:00,50.5,28.9,30.18,NNE,14,0.0,6.0,43,0.00,,CLR,0.00,VWS V14.01,2013-05-13 13:27:00,
2013-05-13 09:30:00,50.7,30.7,30.19,North,0,1.0,5.0,46,0.00,,OVC090,0.00,VWS V14.01,2013-05-13 13:30:00,
2013-05-13 09:32:00,50.7,30.1,30.19,NNW,337,5.0,6.0,45,0.00,,CLR,0.00,VWS V14.01,2013-05-13 13:32:00,
2013-05-13 09:37:00,50.7,29.0,30.19,NNW,344,2.0,6.0,43,0.00,,CLR,0.00,VWS V14.01,2013-05-13 13:37:00,
2013-05-13 09:42:00,50.2,28.6,30.19,NNW,337,0.0,8.0,43,0.00,,CLR,0.00,VWS V14.01,2013-05-13 13:42:00,
2013-05-13 09:45:00,49.9,28.3,30.19,NNW,344,0.0,8.0,43,0.00,,OVC090,0.00,VWS V14.01,2013-05-13 13:45:00,
2013-05-13 09:47:00,49.8,28.2,30.19,WSW,246,0.0,6.0,43,0.00,,CLR,0.00,VWS V14.01,2013-05-13 13:47:00,
2013-05-13 09:52:00,50.1,31.2,30.19,NE,41,0.0,3.0,48,0.00,,CLR,0.00,VWS V14.01,2013-05-13 13:52:00,
2013-05-13 09:57:00,51.1,29.4,30.19,NNE,17,0.0,0.0,43,0.00,,CLR,0.00,VWS V14.01,2013-05-13 13:57:00,
2013-05-13 10:00:00,51.6,30.4,30.19,NNE,17,0.0,0.0,44,0.00,,OVC090,0.00,VWS V14.01,2013-05-13 14:00:00,
2013-05-13 10:02:00,51.6,30.4,30.19,North,0,0.0,0.0,44,0.00,,CLR,0.00,VWS V14.01,2013-05-13 14:02:00,
2013-05-13 10:07:00,51.6,31.5,30.19,NW,325,0.0,2.0,46,0.00,,CLR,0.00,VWS V14.01,2013-05-13 14:07:00,
2013-05-13 10:12:00,51.6,29.3,30.19,North,357,1.0,7.0,42,0.00,,CLR,0.00,VWS V14.01,2013-05-13 14:12:00,
2013-05-13 10:15:00,51.7,31.1,30.20,NW,311,0.0,7.0,45,0.00,,OVC090,0.00,VWS V14.01,2013-05-13 14:15:00,
2013-05-13 10:17:00,51.3,29.0,30.20,North,349,0.0,7.0,42,0.00,,CLR,0.00,VWS V14.01,2013-05-13 14:17:00,
2013-05-13 10:22:00,51.6,29.3,30.20,NNW,346,4.0,4.0,42,0.00,,CLR,0.00,VWS V14.01,2013-05-13 14:22:00,
2013-05-13 10:27:00,51.4,31.9,30.20,North,352,0.0,8.0,47,0.00,,CLR,0.00,VWS V14.01,2013-05-13 14:27:00,
2013-05-13 10:30:00,51.7,31.1,30.20,West,275,0.0,8.0,45,0.00,,OVC090,0.00,VWS V14.01,2013-05-13 14:30:00,
2013-05-13 10:32:00,51.9,30.1,30.20,ENE,66,0.0,8.0,43,0.00,,CLR,0.00,VWS V14.01,2013-05-13 14:32:00,
2013-05-13 10:37:00,51.9,30.1,30.20,NNE,17,0.0,5.0,43,0.00,,CLR,0.00,VWS V14.01,2013-05-13 14:37:00,
2013-05-13 10:42:00,51.9,30.1,30.20,WNW,295,0.0,5.0,43,0.00,,CLR,0.00,VWS V14.01,2013-05-13 14:42:00,
2013-05-13 10:45:00,51.7,28.8,30.20,NW,325,0.0,5.0,41,0.00,,OVC090,0.00,VWS V14.01,2013-05-13 14:45:00,
2013-05-13 10:47:00,51.6,29.9,30.20,NNW,335,0.0,5.0,43,0.00,,CLR,0.00,VWS V14.01,2013-05-13 14:47:00,
2013-05-13 10:52:00,51.9,30.1,30.20,NNW,333,0.0,0.0,43,0.00,,CLR,0.00,VWS V14.01,2013-05-13 14:52:00,
2013-05-13 10:57:00,52.0,30.8,30.20,NNW,346,0.0,6.0,44,0.00,,CLR,0.00,VWS V14.01,2013-05-13 14:57:00,
2013-05-13 11:00:00,51.9,29.0,30.20,NNW,346,0.0,6.0,41,0.00,,OVC090,0.00,VWS V14.01,2013-05-13 15:00:00,
2013-05-13 11:02:00,52.0,28.5,30.20,NNW,346,0.0,3.0,40,0.00,,CLR,0.00,VWS V14.01,2013-05-13 15:02:00,
2013-05-13 11:07:00,51.9,29.0,30.20,NNW,343,0.0,2.0,41,0.00,,CLR,0.00,VWS V14.01,2013-05-13 15:07:00,
2013-05-13 11:12:00,52.5,30.1,30.20,NNW,343,0.0,2.0,42,0.00,,CLR,0.00,VWS V14.01,2013-05-13 15:12:00,
2013-05-13 11:15:00,52.8,30.9,30.20,NNW,339,6.0,6.0,43,0.00,,OVC090,0.00,VWS V14.01,2013-05-13 15:15:00,
2013-05-13 11:17:00,52.5,28.9,30.20,NNE,28,0.0,6.0,40,0.00,,CLR,0.00,VWS V14.01,2013-05-13 15:17:00,
2013-05-13 11:22:00,51.9,29.0,30.20,WSW,244,0.0,6.0,41,0.00,,CLR,0.00,VWS V14.01,2013-05-13 15:22:00,
2013-05-13 11:27:00,51.0,28.7,30.20,SW,224,0.0,6.0,42,0.00,,CLR,0.00,VWS V14.01,2013-05-13 15:27:00,
2013-05-13 11:30:00,50.7,29.6,30.21,SW,224,0.0,4.0,44,0.00,,OVC090,0.00,VWS V14.01,2013-05-13 15:30:00,
2013-05-13 11:32:00,50.7,29.0,30.21,SW,224,0.0,0.0,43,0.00,,CLR,0.00,VWS V14.01,2013-05-13 15:32:00,
2013-05-13 11:37:00,51.3,29.6,30.21,SW,224,0.0,0.0,43,0.00,,CLR,0.00,VWS V14.01,2013-05-13 15:37:00,
2013-05-13 11:42:00,51.9,32.8,30.21,SW,224,0.0,0.0,48,0.00,,CLR,0.00,VWS V14.01,2013-05-13 15:42:00,
2013-05-13 11:45:00,52.2,31.5,30.21,West,260,0.0,11.0,45,0.00,,OVC090,0.00,VWS V14.01,2013-05-13 15:45:00,
2013-05-13 11:47:00,52.3,31.0,30.21,NW,318,0.0,11.0,44,0.00,,CLR,0.00,VWS V14.01,2013-05-13 15:47:00,
2013-05-13 11:52:00,52.8,32.6,30.21,West,275,0.0,6.0,46,0.00,,CLR,0.00,VWS V14.01,2013-05-13 15:52:00,
2013-05-13 11:57:00,53.2,28.9,30.21,West,277,0.0,5.0,39,0.00,,CLR,0.00,VWS V14.01,2013-05-13 15:57:00,
2013-05-13 12:00:00,53.6,32.2,30.21,West,263,7.0,7.0,44,0.00,,OVC090,0.00,VWS V14.01,2013-05-13 16:00:00,
2013-05-13 12:02:00,53.6,29.9,30.21,West,265,0.0,7.0,40,0.00,,CLR,0.00,VWS V14.01,2013-05-13 16:02:00,
2013-05-13 12:07:00,53.1,30.0,30.21,North,350,3.0,9.0,41,0.00,,CLR,0.00,VWS V14.01,2013-05-13 16:07:00,
2013-05-13 12:12:00,52.6,31.3,30.21,NNW,343,0.0,9.0,44,0.00,,CLR,0.00,VWS V14.01,2013-05-13 16:12:00,
2013-05-13 12:15:00,52.2,30.4,30.21,West,271,2.0,9.0,43,0.00,,OVC090,0.00,VWS V14.01,2013-05-13 16:15:00,
2013-05-13 12:17:00,52.2,31.0,30.21,West,275,0.0,9.0,44,0.00,,CLR,0.00,VWS V14.01,2013-05-13 16:17:00,
2013-05-13 12:22:00,52.0,28.5,30.21,West,275,0.0,3.0,40,0.00,,CLR,0.00,VWS V14.01,2013-05-13 16:22:00,
2013-05-13 12:27:00,51.9,31.8,30.21,West,275,0.0,0.0,46,0.00,,CLR,0.00,VWS V14.01,2013-05-13 16:27:00,
2013-05-13 12:30:00,52.0,31.3,30.20,NNW,340,2.0,6.0,45,0.00,,OVC090,0.00,VWS V14.01,2013-05-13 16:30:00,
2013-05-13 12:32:00,52.0,31.3,30.20,NW,325,0.0,6.0,45,0.00,,BKN100,0.00,VWS V14.01,2013-05-13 16:32:00,
2013-05-13 12:37:00,52.8,31.5,30.20,WSW,240,1.0,6.0,44,0.00,,BKN100,0.00,VWS V14.01,2013-05-13 16:37:00,
2013-05-13 12:42:00,52.9,30.5,30.20,SW,230,0.0,3.0,42,0.00,,BKN100,0.00,VWS V14.01,2013-05-13 16:42:00,
2013-05-13 12:45:00,53.3,32.5,30.20,NNW,336,0.0,3.0,45,0.00,,OVC090,0.00,VWS V14.01,2013-05-13 16:45:00,
2013-05-13 12:47:00,53.8,33.0,30.20,NW,325,5.0,7.0,45,0.00,,BKN100,0.00,VWS V14.01,2013-05-13 16:47:00,
2013-05-13 12:52:00,54.2,33.3,30.20,NNW,336,0.0,7.0,45,0.00,,BKN100,0.00,VWS V14.01,2013-05-13 16:52:00,
2013-05-13 12:57:00,53.9,32.5,30.20,SW,227,3.0,3.0,44,0.00,,BKN100,0.00,VWS V14.01,2013-05-13 16:57:00,
2013-05-13 13:00:00,53.5,31.0,30.19,SW,227,1.0,3.0,42,0.00,,OVC090,0.00,VWS V14.01,2013-05-13 17:00:00,
2013-05-13 13:02:00,53.1,31.2,30.19,West,261,5.0,6.0,43,0.00,,BKN060,0.00,VWS V14.01,2013-05-13 17:02:00,
2013-05-13 13:07:00,52.0,29.0,30.19,WSW,239,0.0,11.0,41,0.00,,BKN060,0.00,VWS V14.01,2013-05-13 17:07:00,
2013-05-13 13:12:00,51.9,30.7,30.19,WSW,239,0.0,10.0,44,0.00,,BKN060,0.00,VWS V14.01,2013-05-13 17:12:00,
2013-05-13 13:15:00,52.0,30.2,30.19,WSW,239,0.0,0.0,43,0.00,,OVC090,0.00,VWS V14.01,2013-05-13 17:15:00,
2013-05-13 13:17:00,52.6,31.9,30.19,North,10,0.0,2.0,45,0.00,,BKN060,0.00,VWS V14.01,2013-05-13 17:17:00,
2013-05-13 13:22:00,53.9,31.9,30.19,North,350,0.0,2.0,43,0.00,,BKN060,0.00,VWS V14.01,2013-05-13 17:22:00,
2013-05-13 13:27:00,54.1,30.3,30.19,SW,216,0.0,4.0,40,0.00,,BKN060,0.00,VWS V14.01,2013-05-13 17:27:00,
2013-05-13 13:30:00,53.9,33.1,30.19,SW,219,0.0,4.0,45,0.00,,OVC090,0.00,VWS V14.01,2013-05-13 17:30:00,
2013-05-13 13:32:00,53.8,30.7,30.19,North,359,0.0,4.0,41,0.00,,BKN060,0.00,VWS V14.01,2013-05-13 17:32:00,
2013-05-13 13:37:00,53.9,30.8,30.19,NNW,328,12.0,12.0,41,0.00,,BKN060,0.00,VWS V14.01,2013-05-13 17:37:00,
2013-05-13 13:42:00,53.6,31.7,30.19,WNW,292,0.0,12.0,43,0.00,,BKN060,0.00,VWS V14.01,2013-05-13 17:42:00,
2013-05-13 13:45:00,53.3,32.0,30.19,SW,234,0.0,12.0,44,0.00,,OVC090,0.00,VWS V14.01,2013-05-13 17:45:00,
2013-05-13 13:47:00,53.3,30.8,30.19,SW,234,0.0,7.0,42,0.00,,BKN060,0.00,VWS V14.01,2013-05-13 17:47:00,
2013-05-13 13:52:00,53.3,30.2,30.19,West,260,0.0,8.0,41,0.00,,BKN060,0.00,VWS V14.01,2013-05-13 17:52:00,
2013-05-13 13:57:00,53.5,31.6,30.19,SW,233,1.0,8.0,43,0.00,,BKN060,0.00,VWS V14.01,2013-05-13 17:57:00,
2013-05-13 14:00:00,53.5,30.4,30.18,WSW,241,0.0,7.0,41,0.00,,OVC090,0.00,VWS V14.01,2013-05-13 18:00:00,
2013-05-13 14:02:00,53.6,29.9,30.18,SW,229,0.0,7.0,40,0.00,,BKN080,0.00,VWS V14.01,2013-05-13 18:02:00,
2013-05-13 14:07:00,54.2,32.2,30.18,NW,319,0.0,4.0,43,0.00,,BKN080,0.00,VWS V14.01,2013-05-13 18:07:00,
2013-05-13 14:12:00,55.0,32.3,30.18,NNW,346,0.0,10.0,42,0.00,,BKN080,0.00,VWS V14.01,2013-05-13 18:12:00,
2013-05-13 14:15:00,55.3,30.8,30.17,NNW,346,0.0,10.0,39,0.00,,OVC090,0.00,VWS V14.01,2013-05-13 18:15:00,
2013-05-13 14:17:00,55.3,31.4,30.17,NNW,344,0.0,10.0,40,0.00,,BKN080,0.00,VWS V14.01,2013-05-13 18:17:00,
2013-05-13 14:22:00,55.4,32.1,30.17,West,261,10.0,12.0,41,0.00,,BKN080,0.00,VWS V14.01,2013-05-13 18:22:00,
2013-05-13 14:27:00,55.6,30.4,30.17,WSW,248,8.0,13.0,38,0.00,,BKN080,0.00,VWS V14.01,2013-05-13 18:27:00,
2013-05-13 14:30:00,56.0,32.7,30.17,SW,232,7.0,13.0,41,0.00,,OVC090,0.00,VWS V14.01,2013-05-13 18:30:00,
2013-05-13 14:32:00,55.9,29.4,30.17,West,264,2.0,12.0,36,0.00,,BKN080,0.00,VWS V14.01,2013-05-13 18:32:00,
2013-05-13 14:37:00,56.0,30.1,30.17,West,260,1.0,10.0,37,0.00,,BKN080,0.00,VWS V14.01,2013-05-13 18:37:00,
2013-05-13 14:42:00,55.7,29.9,30.17,NW,312,0.0,8.0,37,0.00,,BKN080,0.00,VWS V14.01,2013-05-13 18:42:00,
2013-05-13 14:45:00,55.7,29.2,30.17,WNW,302,1.0,8.0,36,0.00,,OVC090,0.00,VWS V14.01,2013-05-13 18:45:00,
2013-05-13 14:47:00,55.6,31.1,30.17,WSW,257,0.0,7.0,39,0.00,,BKN080,0.00,VWS V14.01,2013-05-13 18:47:00,
2013-05-13 14:52:00,55.3,29.5,30.17,SW,223,0.0,7.0,37,0.00,,BKN080,0.00,VWS V14.01,2013-05-13 18:52:00,
2013-05-13 14:57:00,55.0,29.9,30.17,West,268,1.0,12.0,38,0.00,,BKN080,0.00,VWS V14.01,2013-05-13 18:57:00,
2013-05-13 15:00:00,54.8,30.3,30.18,SW,219,4.0,13.0,39,0.00,,OVC090,0.00,VWS V14.01,2013-05-13 19:00:00,
2013-05-13 15:02:00,54.4,28.7,30.18,WSW,251,0.0,13.0,37,0.00,,OVC090,0.00,VWS V14.01,2013-05-13 19:02:00,
2013-05-13 15:07:00,54.4,30.6,30.18,West,278,0.0,13.0,40,0.00,,OVC090,0.00,VWS V14.01,2013-05-13 19:07:00,
2013-05-13 15:12:00,55.4,31.5,30.18,NW,311,0.0,9.0,40,0.00,,OVC090,0.00,VWS V14.01,2013-05-13 19:12:00,
2013-05-13 15:15:00,55.9,33.8,30.17,WSW,257,0.0,8.0,43,0.00,,OVC090,0.00,VWS V14.01,2013-05-13 19:15:00,
2013-05-13 15:17:00,56.0,30.1,30.17,North,0,2.0,8.0,37,0.00,,OVC090,0.00,VWS V14.01,2013-05-13 19:17:00,
2013-05-13 15:22:00,55.9,30.7,30.17,NNW,347,5.0,7.0,38,0.00,,OVC090,0.00,VWS V14.01,2013-05-13 19:22:00,
2013-05-13 15:27:00,55.4,30.2,30.17,NW,309,0.0,7.0,38,0.00,,OVC090,0.00,VWS V14.01,2013-05-13 19:27:00,
2013-05-13 15:30:00,55.6,32.3,30.17,North,349,6.0,7.0,41,0.00,,OVC090,0.00,VWS V14.01,2013-05-13 19:30:00,
2013-05-13 15:32:00,55.9,32.0,30.17,NNW,335,3.0,7.0,40,0.00,,OVC090,0.00,VWS V14.01,2013-05-13 19:32:00,
2013-05-13 15:37:00,55.9,31.3,30.17,NW,323,0.0,11.0,39,0.00,,OVC090,0.00,VWS V14.01,2013-05-13 19:37:00,
2013-05-13 15:42:00,55.4,30.9,30.17,West,261,0.0,6.0,39,0.00,,OVC090,0.00,VWS V14.01,2013-05-13 19:42:00,
2013-05-13 15:45:00,55.1,30.6,30.17,NNW,344,0.0,8.0,39,0.00,,OVC090,0.00,VWS V14.01,2013-05-13 19:45:00,
2013-05-13 15:47:00,55.3,33.2,30.17,NNW,336,0.0,8.0,43,0.00,,OVC090,0.00,VWS V14.01,2013-05-13 19:47:00,
2013-05-13 15:52:00,56.3,34.1,30.17,West,278,0.0,3.0,43,0.00,,OVC090,0.00,VWS V14.01,2013-05-13 19:52:00,
2013-05-13 15:57:00,56.9,30.9,30.17,NW,318,0.0,12.0,37,0.00,,OVC090,0.00,VWS V14.01,2013-05-13 19:57:00,
2013-05-13 16:00:00,56.7,30.7,30.16,WSW,246,2.0,12.0,37,0.00,,OVC090,0.00,VWS V14.01,2013-05-13 20:00:00,
2013-05-13 16:02:00,56.5,29.9,30.16,NNW,344,0.0,12.0,36,0.00,,OVC095,0.00,VWS V14.01,2013-05-13 20:02:00,
2013-05-13 16:07:00,56.5,31.2,30.16,NNW,332,0.0,7.0,38,0.00,,OVC095,0.00,VWS V14.01,2013-05-13 20:07:00,
2013-05-13 16:12:00,57.0,31.7,30.16,NW,318,3.0,8.0,38,0.00,,OVC095,0.00,VWS V14.01,2013-05-13 20:12:00,
2013-05-13 16:15:00,57.3,31.3,30.16,NW,322,0.0,8.0,37,0.00,,OVC090,0.00,VWS V14.01,2013-05-13 20:15:00,
2013-05-13 16:17:00,57.3,31.3,30.16,North,350,7.0,13.0,37,0.00,,OVC095,0.00,VWS V14.01,2013-05-13 20:17:00,
2013-05-13 16:22:00,56.2,31.0,30.16,NW,308,0.0,13.0,38,0.00,,OVC095,0.00,VWS V14.01,2013-05-13 20:22:00,
2013-05-13 16:27:00,55.6,32.3,30.16,North,3,2.0,8.0,41,0.00,,OVC095,0.00,VWS V14.01,2013-05-13 20:27:00,
2013-05-13 16:30:00,55.6,31.7,30.15,North,0,0.0,6.0,40,0.00,,OVC090,0.00,VWS V14.01,2013-05-13 20:30:00,
2013-05-13 16:32:00,55.6,31.7,30.15,North,356,0.0,6.0,40,0.00,,OVC095,0.00,VWS V14.01,2013-05-13 20:32:00,
2013-05-13 16:37:00,56.2,31.0,30.15,North,352,0.0,3.0,38,0.00,,OVC095,0.00,VWS V14.01,2013-05-13 20:37:00,
2013-05-13 16:42:00,56.3,33.5,30.15,North,7,0.0,10.0,42,0.00,,OVC095,0.00,VWS V14.01,2013-05-13 20:42:00,
2013-05-13 16:45:00,55.9,33.2,30.15,NNW,328,0.0,10.0,42,0.00,,OVC090,0.00,VWS V14.01,2013-05-13 20:45:00,
2013-05-13 16:47:00,55.6,31.7,30.15,NNE,18,0.0,6.0,40,0.00,,OVC095,0.00,VWS V14.01,2013-05-13 20:47:00,
2013-05-13 16:52:00,55.3,30.8,30.15,NNW,337,0.0,6.0,39,0.00,,OVC095,0.00,VWS V14.01,2013-05-13 20:52:00,
2013-05-13 16:57:00,56.0,32.0,30.15,NW,322,0.0,6.0,40,0.00,,OVC095,0.00,VWS V14.01,2013-05-13 20:57:00,
2013-05-13 17:00:00,56.5,32.5,30.15,NNW,330,1.0,8.0,40,0.00,,OVC090,0.00,VWS V14.01,2013-05-13 21:00:00,
2013-05-13 17:02:00,56.5,29.9,30.15,WNW,291,0.0,8.0,36,0.00,,BKN085,0.00,VWS V14.01,2013-05-13 21:02:00,
2013-05-13 17:07:00,56.6,31.3,30.15,North,354,3.0,8.0,38,0.00,,BKN085,0.00,VWS V14.01,2013-05-13 21:07:00,
2013-05-13 17:12:00,56.2,29.6,30.15,WNW,302,0.0,9.0,36,0.00,,BKN085,0.00,VWS V14.01,2013-05-13 21:12:00,
2013-05-13 17:15:00,55.9,30.0,30.15,North,359,0.0,9.0,37,0.00,,OVC090,0.00,VWS V14.01,2013-05-13 21:15:00,
2013-05-13 17:17:00,55.9,33.2,30.15,NW,316,0.0,9.0,42,0.00,,BKN085,0.00,VWS V14.01,2013-05-13 21:17:00,
2013-05-13 17:22:00,56.6,32.6,30.15,West,263,5.0,8.0,40,0.00,,BKN085,0.00,VWS V14.01,2013-05-13 21:22:00,
2013-05-13 17:27:00,57.2,31.2,30.15,NNW,333,5.0,8.0,37,0.00,,BKN085,0.00,VWS V14.01,2013-05-13 21:27:00,
2013-05-13 17:30:00,56.7,30.1,30.14,North,352,2.0,9.0,36,0.00,,OVC090,0.00,VWS V14.01,2013-05-13 21:30:00,
2013-05-13 17:32:00,56.5,31.2,30.14,WNW,288,0.0,9.0,38,0.00,,BKN085,0.00,VWS V14.01,2013-05-13 21:32:00,
2013-05-13 17:37:00,56.3,31.7,30.14,NW,323,0.0,7.0,39,0.00,,BKN085,0.00,VWS V14.01,2013-05-13 21:37:00,
2013-05-13 17:42:00,56.5,31.2,30.14,NW,323,2.0,7.0,38,0.00,,BKN085,0.00,VWS V14.01,2013-05-13 21:42:00,
2013-05-13 17:45:00,56.7,32.0,30.14,NNW,347,5.0,7.0,39,0.00,,OVC090,0.00,VWS V14.01,2013-05-13 21:45:00,
2013-05-13 17:47:00,57.2,30.5,30.14,NNW,337,2.0,7.0,36,0.00,,BKN085,0.00,VWS V14.01,2013-05-13 21:47:00,
2013-05-13 17:52:00,57.3,30.6,30.14,NNW,330,4.0,12.0,36,0.00,,BKN085,0.00,VWS V14.01,2013-05-13 21:52:00,
2013-05-13 17:57:00,56.7,30.1,30.14,North,356,5.0,11.0,36,0.00,,BKN085,0.00,VWS V14.01,2013-05-13 21:57:00,
2013-05-13 18:00:00,56.7,30.7,30.14,WNW,285,6.0,11.0,37,0.00,,OVC090,0.00,VWS V14.01,2013-05-13 22:00:00,
2013-05-13 18:02:00,56.6,30.6,30.14,WNW,298,6.0,10.0,37,0.00,,BKN090,0.00,VWS V14.01,2013-05-13 22:02:00,
2013-05-13 18:07:00,56.3,30.4,30.14,North,349,7.0,12.0,37,0.00,,BKN090,0.00,VWS V14.01,2013-05-13 22:07:00,
2013-05-13 18:12:00,55.9,30.0,30.14,North,349,1.0,12.0,37,0.00,,BKN090,0.00,VWS V14.01,2013-05-13 22:12:00,
2013-05-13 18:15:00,55.7,29.9,30.14,NNW,336,11.0,11.0,37,0.00,,OVC090,0.00,VWS V14.01,2013-05-13 22:15:00,
2013-05-13 18:17:00,55.4,30.2,30.14,NNW,337,0.0,11.0,38,0.00,,BKN090,0.00,VWS V14.01,2013-05-13 22:17:00,
2013-05-13 18:22:00,55.4,29.6,30.14,North,359,5.0,11.0,37,0.00,,BKN090,0.00,VWS V14.01,2013-05-13 22:22:00,
2013-05-13 18:27:00,55.3,30.8,30.14,NW,322,0.0,7.0,39,0.00,,BKN090,0.00,VWS V14.01,2013-05-13 22:27:00,
2013-05-13 18:30:00,55.4,32.1,30.14,North,0,0.0,6.0,41,0.00,,OVC090,0.00,VWS V14.01,2013-05-13 22:30:00,
2013-05-13 18:32:00,55.4,31.5,30.14,NNW,344,0.0,6.0,40,0.00,,BKN090,0.00,VWS V14.01,2013-05-13 22:32:00,
2013-05-13 18:37:00,55.3,31.4,30.14,North,1,4.0,8.0,40,0.00,,BKN090,0.00,VWS V14.01,2013-05-13 22:37:00,
2013-05-13 18:42:00,55.0,32.3,30.14,NNE,25,0.0,6.0,42,0.00,,BKN090,0.00,VWS V14.01,2013-05-13 22:42:00,
2013-05-13 18:45:00,54.8,31.0,30.14,North,10,0.0,5.0,40,0.00,,OVC090,0.00,VWS V14.01,2013-05-13 22:45:00,
2013-05-13 18:47:00,54.5,32.5,30.14,NNE,16,0.0,3.0,43,0.00,,BKN090,0.00,VWS V14.01,2013-05-13 22:47:00,
2013-05-13 18:52:00,54.4,31.2,30.14,NNE,16,0.0,2.0,41,0.00,,BKN090,0.00,VWS V14.01,2013-05-13 22:52:00,
2013-05-13 18:57:00,54.2,30.4,30.14,NNE,16,0.0,1.0,40,0.00,,BKN090,0.00,VWS V14.01,2013-05-13 22:57:00,
2013-05-13 19:00:00,54.2,30.4,30.15,NNE,16,0.0,0.0,40,0.00,,OVC090,0.00,VWS V14.01,2013-05-13 23:00:00,
2013-05-13 19:02:00,54.2,30.4,30.15,NNE,16,0.0,0.0,40,0.00,,SCT080,0.00,VWS V14.01,2013-05-13 23:02:00,
2013-05-13 19:07:00,54.4,29.3,30.15,North,10,0.0,3.0,38,0.00,,SCT080,0.00,VWS V14.01,2013-05-13 23:07:00,
2013-05-13 19:12:00,54.2,29.8,30.15,North,7,0.0,5.0,39,0.00,,SCT080,0.00,VWS V14.01,2013-05-13 23:12:00,
2013-05-13 19:15:00,54.1,28.4,30.14,NE,40,1.0,7.0,37,0.00,,OVC090,0.00,VWS V14.01,2013-05-13 23:15:00,
2013-05-13 19:17:00,54.1,29.7,30.14,North,349,0.0,7.0,39,0.00,,SCT080,0.00,VWS V14.01,2013-05-13 23:17:00,
2013-05-13 19:22:00,53.8,29.4,30.14,NNW,337,0.0,6.0,39,0.00,,SCT080,0.00,VWS V14.01,2013-05-13 23:22:00,
2013-05-13 19:27:00,53.5,31.0,30.14,NNW,330,0.0,5.0,42,0.00,,SCT080,0.00,VWS V14.01,2013-05-13 23:27:00,
2013-05-13 19:30:00,53.3,30.8,30.14,NNW,332,0.0,5.0,42,0.00,,OVC090,0.00,VWS V14.01,2013-05-13 23:30:00,
2013-05-13 19:32:00,53.3,29.6,30.14,NNW,336,0.0,5.0,40,0.00,,SCT080,0.00,VWS V14.01,2013-05-13 23:32:00,
2013-05-13 19:37:00,53.1,30.0,30.14,NNW,339,0.0,2.0,41,0.00,,SCT080,0.00,VWS V14.01,2013-05-13 23:37:00,
2013-05-13 19:42:00,52.9,29.2,30.14,NNW,343,0.0,7.0,40,0.00,,SCT080,0.00,VWS V14.01,2013-05-13 23:42:00,
2013-05-13 19:45:00,52.9,29.2,30.14,NW,305,0.0,7.0,40,0.00,,OVC090,0.00,VWS V14.01,2013-05-13 23:45:00,
2013-05-13 19:47:00,52.9,28.6,30.14,NW,305,0.0,5.0,39,0.00,,SCT080,0.00,VWS V14.01,2013-05-13 23:47:00,
2013-05-13 19:52:00,52.8,28.5,30.14,NW,305,0.0,0.0,39,0.00,,SCT080,0.00,VWS V14.01,2013-05-13 23:52:00,
2013-05-13 19:57:00,52.5,29.5,30.14,NW,305,0.0,0.0,41,0.00,,SCT080,0.00,VWS V14.01,2013-05-13 23:57:00,
2013-05-13 20:00:00,52.3,29.3,30.15,NW,305,0.0,0.0,41,0.00,,OVC090,0.00,VWS V14.01,2013-05-14 00:00:00,
2013-05-13 20:02:00,52.2,30.4,30.15,NW,305,0.0,0.0,43,0.00,,CLR,0.00,VWS V14.01,2013-05-14 00:02:00,
2013-05-13 20:08:00,52.0,30.2,30.15,NW,305,0.0,0.0,43,0.00,,CLR,0.00,VWS V14.01,2013-05-14 00:08:00,
2013-05-13 20:13:00,51.7,31.1,30.15,NW,305,0.0,0.0,45,0.00,,CLR,0.00,VWS V14.01,2013-05-14 00:13:00,
2013-05-13 20:15:00,51.6,31.0,30.15,NW,305,0.0,0.0,45,0.00,,OVC090,0.00,VWS V14.01,2013-05-14 00:15:00,
2013-05-13 20:17:00,51.4,30.8,30.15,NW,305,0.0,0.0,45,0.00,,CLR,0.00,VWS V14.01,2013-05-14 00:17:00,
2013-05-13 20:23:00,51.3,32.3,30.15,NW,305,0.0,0.0,48,0.00,,CLR,0.00,VWS V14.01,2013-05-14 00:23:00,
2013-05-13 20:27:00,51.0,32.0,30.15,NW,305,0.0,0.0,48,0.00,,CLR,0.00,VWS V14.01,2013-05-14 00:27:00,
2013-05-13 20:30:00,50.8,32.3,30.15,NW,305,0.0,0.0,49,0.00,,OVC090,0.00,VWS V14.01,2013-05-14 00:30:00,
2013-05-13 20:33:00,50.5,32.1,30.15,NW,305,0.0,0.0,49,0.00,,CLR,0.00,VWS V14.01,2013-05-14 00:33:00,
2013-05-13 20:37:00,50.2,32.8,30.15,NW,305,0.0,0.0,51,0.00,,CLR,0.00,VWS V14.01,2013-05-14 00:37:00,
2013-05-13 20:42:00,49.8,32.4,30.15,NW,305,0.0,0.0,51,0.00,,CLR,0.00,VWS V14.01,2013-05-14 00:42:00,
2013-05-13 20:45:00,49.6,32.2,30.15,NW,305,0.0,0.0,51,0.00,,OVC090,0.00,VWS V14.01,2013-05-14 00:45:00,
2013-05-13 20:47:00,49.4,33.0,30.15,NW,305,0.0,0.0,53,0.00,,CLR,0.00,VWS V14.01,2013-05-14 00:47:00,
2013-05-13 20:52:00,48.9,33.5,30.15,NW,305,0.0,0.0,55,0.00,,CLR,0.00,VWS V14.01,2013-05-14 00:52:00,
2013-05-13 20:57:00,48.3,33.3,30.15,NW,305,0.0,0.0,56,0.00,,CLR,0.00,VWS V14.01,2013-05-14 00:57:00,
2013-05-13 21:00:00,48.2,33.3,30.17,NW,305,0.0,0.0,56,0.00,,OVC090,0.00,VWS V14.01,2013-05-14 01:00:00,
2013-05-13 21:02:00,47.9,33.4,30.17,NW,305,0.0,0.0,57,0.00,,CLR,0.00,VWS V14.01,2013-05-14 01:02:00,
2013-05-13 21:08:00,47.3,33.3,30.17,NW,305,0.0,0.0,58,0.00,,CLR,0.00,VWS V14.01,2013-05-14 01:08:00,
2013-05-13 21:12:00,46.8,33.2,30.17,NW,305,0.0,0.0,59,0.00,,CLR,0.00,VWS V14.01,2013-05-14 01:12:00,
2013-05-13 21:15:00,46.7,33.6,30.17,NW,305,0.0,0.0,60,0.00,,OVC090,0.00,VWS V14.01,2013-05-14 01:15:00,
2013-05-13 21:18:00,46.4,33.7,30.17,NW,305,0.0,0.0,61,0.00,,CLR,0.00,VWS V14.01,2013-05-14 01:18:00,
2013-05-13 21:22:00,46.0,33.3,30.17,NW,305,0.0,0.0,61,0.00,,CLR,0.00,VWS V14.01,2013-05-14 01:22:00,
2013-05-13 21:27:00,45.4,33.6,30.17,NW,305,0.0,0.0,63,0.00,,CLR,0.00,VWS V14.01,2013-05-14 01:27:00,
2013-05-13 21:30:00,45.2,33.8,30.17,NW,305,0.0,0.0,64,0.00,,OVC090,0.00,VWS V14.01,2013-05-14 01:30:00,
2013-05-13 21:32:00,44.8,33.4,30.17,NW,305,0.0,0.0,64,0.00,,CLR,0.00,VWS V14.01,2013-05-14 01:32:00,
2013-05-13 21:37:00,44.3,33.3,30.17,NW,305,0.0,0.0,65,0.00,,CLR,0.00,VWS V14.01,2013-05-14 01:37:00,
2013-05-13 21:42:00,43.9,33.3,30.17,NW,305,0.0,0.0,66,0.00,,CLR,0.00,VWS V14.01,2013-05-14 01:42:00,
2013-05-13 21:45:00,43.8,33.2,30.17,NW,305,0.0,0.0,66,0.00,,OVC090,0.00,VWS V14.01,2013-05-14 01:45:00,
2013-05-13 21:47:00,43.5,33.3,30.17,NW,305,0.0,0.0,67,0.00,,CLR,0.00,VWS V14.01,2013-05-14 01:47:00,
2013-05-13 21:52:00,43.2,33.4,30.17,NW,305,0.0,0.0,68,0.00,,CLR,0.00,VWS V14.01,2013-05-14 01:52:00,
2013-05-13 21:57:00,42.8,33.3,30.17,NW,305,0.0,0.0,69,0.00,,CLR,0.00,VWS V14.01,2013-05-14 01:57:00,
2013-05-13 22:00:00,42.6,33.2,30.18,NW,305,0.0,0.0,69,0.00,,OVC090,0.00,VWS V14.01,2013-05-14 02:00:00,
2013-05-13 22:02:00,42.3,32.9,30.18,NW,305,0.0,0.0,69,0.00,,CLR,0.00,VWS V14.01,2013-05-14 02:02:00,
2013-05-13 22:07:00,42.1,33.0,30.18,NW,305,0.0,0.0,70,0.00,,CLR,0.00,VWS V14.01,2013-05-14 02:07:00,
2013-05-13 22:12:00,41.6,32.9,30.18,NW,305,0.0,0.0,71,0.00,,CLR,0.00,VWS V14.01,2013-05-14 02:12:00,
2013-05-13 22:15:00,41.5,32.8,30.18,NW,305,0.0,0.0,71,0.00,,OVC090,0.00,VWS V14.01,2013-05-14 02:15:00,
2013-05-13 22:17:00,41.3,33.0,30.18,NW,305,0.0,0.0,72,0.00,,CLR,0.00,VWS V14.01,2013-05-14 02:17:00,
2013-05-13 22:22:00,41.1,33.1,30.18,NW,305,0.0,0.0,73,0.00,,CLR,0.00,VWS V14.01,2013-05-14 02:22:00,
2013-05-13 22:27:00,40.6,32.6,30.18,NW,305,0.0,0.0,73,0.00,,CLR,0.00,VWS V14.01,2013-05-14 02:27:00,
2013-05-13 22:30:00,40.5,32.9,30.19,NW,305,0.0,0.0,74,0.00,,OVC090,0.00,VWS V14.01,2013-05-14 02:30:00,
2013-05-13 22:32:00,40.3,32.7,30.19,NW,305,0.0,0.0,74,0.00,,CLR,0.00,VWS V14.01,2013-05-14 02:32:00,
2013-05-13 22:37:00,40.1,32.8,30.19,NW,305,0.0,0.0,75,0.00,,CLR,0.00,VWS V14.01,2013-05-14 02:37:00,
2013-05-13 22:42:00,39.8,32.9,30.19,NW,305,0.0,0.0,76,0.00,,CLR,0.00,VWS V14.01,2013-05-14 02:42:00,
2013-05-13 22:45:00,39.6,32.7,30.19,NW,305,0.0,0.0,76,0.00,,OVC090,0.00,VWS V14.01,2013-05-14 02:45:00,
2013-05-13 22:48:00,39.5,32.6,30.19,NW,305,0.0,0.0,76,0.00,,CLR,0.00,VWS V14.01,2013-05-14 02:48:00,
2013-05-13 22:53:00,39.2,32.6,30.19,NW,305,0.0,0.0,77,0.00,,CLR,0.00,VWS V14.01,2013-05-14 02:53:00,
2013-05-13 22:58:00,39.1,32.8,30.19,NW,305,0.0,0.0,78,0.00,,CLR,0.00,VWS V14.01,2013-05-14 02:58:00,
2013-05-13 23:00:00,38.9,32.6,30.19,NW,305,0.0,0.0,78,0.00,,OVC090,0.00,VWS V14.01,2013-05-14 03:00:00,
2013-05-13 23:03:00,38.8,32.5,30.19,NW,305,0.0,0.0,78,0.00,,CLR,0.00,VWS V14.01,2013-05-14 03:03:00,
2013-05-13 23:08:00,38.6,32.7,30.19,NW,305,0.0,0.0,79,0.00,,CLR,0.00,VWS V14.01,2013-05-14 03:08:00,
2013-05-13 23:13:00,38.3,32.7,30.19,NW,305,0.0,0.0,80,0.00,,CLR,0.00,VWS V14.01,2013-05-14 03:13:00,
2013-05-13 23:15:00,38.3,32.7,30.18,NW,305,0.0,0.0,80,0.00,,OVC090,0.00,VWS V14.01,2013-05-14 03:15:00,
2013-05-13 23:18:00,38.3,33.0,30.18,NW,305,0.0,0.0,81,0.00,,CLR,0.00,VWS V14.01,2013-05-14 03:18:00,
2013-05-13 23:23:00,38.2,32.9,30.18,NW,305,0.0,0.0,81,0.00,,CLR,0.00,VWS V14.01,2013-05-14 03:23:00,
2013-05-13 23:28:00,38.0,33.0,30.18,NW,305,0.0,0.0,82,0.00,,CLR,0.00,VWS V14.01,2013-05-14 03:28:00,
2013-05-13 23:30:00,37.9,32.9,30.18,NW,305,0.0,0.0,82,0.00,,OVC090,0.00,VWS V14.01,2013-05-14 03:30:00,
2013-05-13 23:33:00,37.9,32.9,30.18,NW,305,0.0,0.0,82,0.00,,CLR,0.00,VWS V14.01,2013-05-14 03:33:00,
2013-05-13 23:38:00,37.8,33.1,30.18,NW,305,0.0,0.0,83,0.00,,CLR,0.00,VWS V14.01,2013-05-14 03:38:00,
2013-05-13 23:43:00,37.6,32.9,30.18,NW,305,0.0,0.0,83,0.00,,CLR,0.00,VWS V14.01,2013-05-14 03:43:00,
2013-05-13 23:45:00,37.6,32.9,30.18,NW,305,0.0,0.0,83,0.00,,OVC090,0.00,VWS V14.01,2013-05-14 03:45:00,
2013-05-13 23:47:00,37.5,32.8,30.18,NW,305,0.0,0.0,83,0.00,,CLR,0.00,VWS V14.01,2013-05-14 03:47:00,
2013-05-13 23:52:00,37.5,33.1,30.18,NW,305,0.0,0.0,84,0.00,,CLR,0.00,VWS V14.01,2013-05-14 03:52:00,
2013-05-13 23:57:00,37.3,32.9,30.18,NW,305,0.0,0.0,84,0.00,,CLR,0.00,VWS V14.01,2013-05-14 03:57:00,